Volver al catálogo

THORAD DELTA 1 DEB

ActivoLEO
NORAD 14474·DEBRIS·🇺🇸 United States

Lanzado Nov 15, 1974 desde Vandenberg Space Force Base

Loading…

Próximos Pases (próximas 24 horas)

TLE

ActualizadoSource: Space-Track

Época: Sep 14, 2026, 02:52 UTC

1 14474U 74089EQ  26257.12008174 -.00000500  00000-0 -46213-2 0  9998
2 14474 100.6821 133.0647 0280023 266.3863 253.1951 12.08287702931188

Sigue THORAD DELTA 1 DEB en tiempo real con AllMySat

Download on the App Store